Weather History for KSLE - February, 2012

Change the Weather History Date:

Tuesday, February 21, 2012

  Actual Average Record
Temperature  
Mean Temperature 53 °F 44 °F  
Max Temperature 57 °F 53 °F 66 °F (1973)
Min Temperature 49 °F 35 °F 21 °F (1894)
Degree Days  
Heating Degree Days 12 21  
Month to date heating degree days 444 468  
Since 1 July heating degree days 2920 3095  
Cooling Degree Days 0 0  
Month to date cooling degree days 0 0  
Year to date cooling degree days 0 0  
Growing Degree Days 2 (Base 50)    
Moisture  
Dew Point 47 °F    
Average Humidity 83    
Maximum Humidity 93    
Minimum Humidity 72    
Precipitation  
Precipitation 0.01 in 0.16 in 1.21 in (1998)
Month to date precipitation 1.78 3.48  
Year to date precipitation 12.10 9.44  
Snow  
Snow 0.00 in - - ()
Month to date snowfall 0.0  
Snow Depth 0.00 in    
Sea Level Pressure  
Sea Level Pressure 30.26 in    
Wind  
Wind Speed 11 mph (South)    
Max Wind Speed 18 mph    
Max Gust Speed 24 mph    
Visibility 9 miles    
Events Rain    
T = Trace of Precipitation, MM = Missing Value Source: NWS Daily Summary

Daily Weather History Graph

Daily Weather History Graph

Search for Another Location

Airport or City:

Trip Planner

Search our weather history database for the weather conditions in past years. The results will help you decide how hot, cold, wet, or windy it might be!

Date:

Astronomy

Feb. 21, 2012 Rise Set
Actual Time 7:03 AM PST 5:48 PM PST
Civil Twilight 6:34 AM PST 6:17 PM PST
Nautical Twilight 6:00 AM PST 6:51 PM PST
Astronomical Twilight 5:26 AM PST 7:25 PM PST
Moon 6:33 AM PST (2/21) 6:03 PM PST (2/21)
Length of Visible Light 11h 43m
Length of Day
10h 44m
Waning Crescent, 0% of the Moon is Illuminated
Feb 21
Waning Crescent
Feb 21
New
Feb 29
First Quarter
Mar 8
Full
Mar 14
Last Quarter

Hourly Weather History & Observations

Time (PST) Temp. Dew Point Humidity Pressure Visibility Wind Dir Wind Speed Gust Speed Precip Events Conditions
12:56 AM 48.9 °F 46.9 °F 93% 30.18 in 4.0 mi South 12.7 mph - N/A   Overcast
1:56 AM 48.9 °F 46.9 °F 93% 30.19 in 10.0 mi South 11.5 mph - 0.00 in   Overcast
2:03 AM 50.0 °F 46.4 °F 87% 30.20 in 10.0 mi South 11.5 mph - N/A   Overcast
2:56 AM 48.9 °F 46.9 °F 93% 30.19 in 9.0 mi South 12.7 mph - N/A   Overcast
3:17 AM 48.2 °F 46.4 °F 93% 30.19 in 10.0 mi South 10.4 mph - N/A   Overcast
3:56 AM 48.9 °F 46.9 °F 93% 30.19 in 10.0 mi South 10.4 mph - N/A   Overcast
4:41 AM 48.2 °F 46.4 °F 93% 30.21 in 8.0 mi South 6.9 mph - 0.00 in   Overcast
4:56 AM 48.9 °F 46.9 °F 93% 30.22 in 5.0 mi South 8.1 mph - 0.00 in   Overcast
5:56 AM 50.0 °F 46.9 °F 89% 30.22 in 10.0 mi South 13.8 mph - N/A   Overcast
6:22 AM 50.0 °F 46.4 °F 87% 30.23 in 10.0 mi South 8.1 mph - N/A   Overcast
6:56 AM 50.0 °F 46.9 °F 89% 30.25 in 10.0 mi SSE 10.4 mph - N/A   Overcast
7:56 AM 50.0 °F 46.9 °F 89% 30.26 in 10.0 mi South 12.7 mph - N/A   Overcast
8:56 AM 51.1 °F 46.9 °F 86% 30.26 in 10.0 mi South 12.7 mph - 0.00 in   Overcast
9:25 AM 51.8 °F 46.4 °F 82% 30.25 in 7.0 mi South 11.5 mph - 0.00 in Rain Light Rain
10:56 AM 52.0 °F 46.9 °F 83% 30.29 in 10.0 mi South 12.7 mph - N/A   Overcast
11:56 AM 53.1 °F 48.9 °F 86% 30.29 in 10.0 mi South 11.5 mph - N/A   Overcast
12:56 PM 55.0 °F 48.0 °F 77% 30.28 in 10.0 mi SW 10.4 mph - N/A   Overcast
1:56 PM 55.9 °F 48.0 °F 75% 30.27 in 10.0 mi SSW 13.8 mph 23.0 mph N/A   Overcast
2:56 PM 57.0 °F 48.0 °F 72% 30.28 in 10.0 mi SSW 16.1 mph 23.0 mph N/A   Overcast
3:56 PM 55.0 °F 48.9 °F 80% 30.29 in 10.0 mi SSW 9.2 mph 19.6 mph N/A   Overcast
4:27 PM 55.4 °F 48.2 °F 77% 30.28 in 10.0 mi SSW 11.5 mph 23.0 mph N/A   Overcast
4:56 PM 53.1 °F 48.9 °F 86% 30.29 in 10.0 mi SW 11.5 mph - 0.00 in Rain Light Rain
5:56 PM 52.0 °F 48.0 °F 86% 30.31 in 10.0 mi South 8.1 mph - 0.01 in   Overcast
6:56 PM 51.1 °F 48.0 °F 89% 30.32 in 10.0 mi South 9.2 mph - 0.00 in Rain Light Rain
7:56 PM 51.1 °F 46.9 °F 86% 30.31 in 10.0 mi South 8.1 mph - 0.00 in   Overcast
8:56 PM 51.1 °F 46.9 °F 86% 30.32 in 10.0 mi South 9.2 mph - 0.00 in   Overcast
9:56 PM 50.0 °F 46.0 °F 86% 30.32 in 10.0 mi SSW 8.1 mph - 0.00 in Rain Light Rain
10:56 PM 50.0 °F 46.0 °F 86% 30.31 in 10.0 mi South 11.5 mph - 0.00 in   Overcast
11:56 PM 50.0 °F 46.0 °F 86% 30.30 in 10.0 mi South 9.2 mph - N/A   Overcast